User: anonymous   Login
Location: Home
(42.5358°N, 72.7383°W)
Time: 14:48:50
(UTC-05:00)
Language:

DELTA 1 DEB - Orbit

View from above orbital plane
View from above orbital plane
View from above satellite
View from above satellite

Ground track
Ground track

The orbit data is extracted from the following two-line orbital elements,

1 42567U 72058KA  22338.17738426  .00000473  00000-0  94985-4 0  9995
2 42567  98.4740  56.4210 0123035  65.1414 296.2520 14.61948932481715
Epoch (UTC): 04 December 2022 04:15:26
Eccentricity: 0.0123035
inclination: 98.4740°
perigee height: 600 km
apogee height: 774 km
right ascension of ascending node: 56.4210°
argument of perigee: 65.1414°
revolutions per day: 14.61948932
mean anomaly at epoch: 296.2520°
orbit number at epoch: 48171

The dashed part of the orbit path shows where the satellite is in the earth's shadow,  

DLR